QPF
0.03 0.04 0.03 0.02 0.02 0.02 0.03 0.03 0.04 0.04 0.04 0.03 0.02 0.02 0.03 0.03 0.03 0.05 0.04 0.05 0.05 0.06 0.06 0.05 0.06 0.06 0.06 0.07 0.07 0.07 0.09 0.13 0.12 0.11 0.12 0.10 0.09 0.08 0.07 0.04 0.03 0.03 0.04
0.04 0.05 0.03 0.03 0.03 0.03 0.04 0.03 0.03 0.03 0.02 0.03 0.03 0.02 0.02 0.02 0.02 0.03 0.02 0.03 0.04 0.03 0.04 0.04 0.05 0.06 0.07 0.09 0.10 0.09 0.11 0.13 0.12 0.11 0.11 0.10 0.09 0.08 0.08 0.06 0.03 0.02 0.03
0.03 0.04 0.03 0.03 0.03 0.02 0.03 0.03 0.02 0.01 0.02 0.02 0.03 0.02 0.02 0.02 0.02 0.02 0.02 0.02 0.03 0.03 0.02 0.02 0.03 0.04 0.04 0.06 0.08 0.09 0.10 0.11 0.13 0.10 0.11 0.11 0.09 0.09 0.09 0.06 0.04 0.05 0.02
0.02 0.02 0.03 0.03 0.04 0.03 0.03 0.03 0.02 0.01 0.02 0.02 0.03 0.03 0.03 0.02 0.02 0.03 0.03 0.03 0.03 0.03 0.03 0.02 0.02 0.03 0.04 0.05 0.06 0.07 0.08 0.10 0.12 0.11 0.11 0.13 0.13 0.12 0.10 0.08 0.08 0.07 0.04
0.04 0.02 0.02 0.03 0.03 0.03 0.03 0.03 0.02 0.02 0.02 0.02 0.02 0.02 0.02 0.03 0.03 0.03 0.03 0.04 0.05 0.05 0.05 0.04 0.04 0.04 0.05 0.05 0.03 0.04 0.06 0.08 0.10 0.11 0.12 0.12 0.11 0.11 0.11 0.10 0.09 0.09 0.08
0.03 0.02 0.02 0.02 0.02 0.02 0.03 0.03 0.03 0.02 0.02 0.01 0.01 0.01 0.01 0.02 0.03 0.02 0.02 0.03 0.04 0.04 0.05 0.06 0.06 0.05 0.04 0.03 0.03 0.03 0.04 0.05 0.06 0.07 0.09 0.11 0.11 0.10 0.10 0.11 0.10 0.09 0.10
0.02 0.02 0.01 0.02 0.02 0.02 0.01 0.02 0.02 0.02 0.02 0.02 0.01 0.02 0.02 0.02 0.02 0.01 0.01 0.02 0.04 0.05 0.05 0.05 0.03 0.04 0.04 0.02 0.02 0.03 0.03 0.04 0.04 0.05 0.07 0.10 0.11 0.11 0.11 0.11 0.14 0.13 0.10
0.03 0.02 0.02 0.02 0.02 0.01 0.01 0.01 0.02 0.02 0.02 0.02 0.02 0.02 0.02 0.02 0.01 0.01 0.01 0.01 0.03 0.03 0.04 0.04 0.03 0.03 0.04 0.03 0.03 0.03 0.03 0.03 0.03 0.03 0.04 0.07 0.09 0.11 0.09 0.08 0.10 0.12 0.12
0.03 0.02 0.01 0.01 0.01 0.01 0.01 0.01 0.02 0.02 0.02 0.02 0.02 0.01 0.01 0.02 0.01 0.00 0.00 0.01 0.02 0.02 0.02 0.02 0.02 0.02 0.02 0.02 0.03 0.04 0.04 0.03 0.03 0.04 0.04 0.03 0.05 0.09 0.08 0.08 0.10 0.08 0.08
0.03 0.01 0.01 0.01 0.01 0.01 0.01 0.01 0.01 0.01 0.01 0.01 0.01 0.01 0.01 0.01 0.00 0.00 0.00 0.01 0.01 0.01 0.01 0.01 0.01 0.01 0.01 0.02 0.02 0.04 0.04 0.03 0.03 0.04 0.05 0.06 0.05 0.06 0.08 0.08 0.10 0.09 0.07
0.02 0.02 0.01 0.01 0.01 0.01 0.01 0.01 0.01 0.01 0.02 0.02 0.02 0.01 0.01 0.01 0.01 0.01 0.00 0.01 0.02 0.01 0.01 0.01 0.01 0.01 0.01 0.01 0.01 0.01 0.02 0.02 0.03 0.05 0.06 0.07 0.07 0.07 0.08 0.07 0.09 0.09 0.05
0.02 0.02 0.02 0.02 0.01 0.01 0.02 0.03 0.03 0.03 0.02 0.02 0.02 0.01 0.01 0.01 0.01 0.01 0.01 0.01 0.01 0.01 0.01 0.01 0.01 0.01 0.00 0.00 0.00 0.01 0.01 0.02 0.03 0.05 0.05 0.06 0.07 0.08 0.08 0.08 0.10 0.10 0.05
0.03 0.03 0.03 0.03 0.02 0.02 0.02 0.03 0.03 0.03 0.03 0.03 0.03 0.02 0.01 0.01 0.02 0.02 0.01 0.01 0.01 0.01 0.01 0.00 0.00 0.00 0.00 0.00 0.00 0.01 0.01 0.01 0.03 0.03 0.03 0.04 0.05 0.07 0.08 0.09 0.12 0.13 0.08
0.05 0.05 0.04 0.04 0.04 0.04 0.04 0.03 0.03 0.03 0.03 0.03 0.03 0.03 0.03 0.03 0.03 0.03 0.02 0.02 0.02 0.02 0.01 0.01 0.00 0.00 0.00 0.00 0.00 0.01 0.01 0.01 0.02 0.02 0.02 0.02 0.03 0.04 0.05 0.07 0.10 0.13 0.12
0.06 0.05 0.05 0.04 0.04 0.04 0.04 0.03 0.03 0.03 0.04 0.03 0.03 0.03 0.03 0.03 0.03 0.03 0.03 0.02 0.02 0.02 0.01 0.01 0.01 0.01 0.01 0.02 0.02 0.01 0.01 0.02 0.02 0.02 0.01 0.01 0.02 0.03 0.04 0.05 0.06 0.09 0.10
0.06 0.06 0.05 0.04 0.03 0.03 0.02 0.02 0.02 0.02 0.02 0.03 0.04 0.04 0.03 0.03 0.02 0.02 0.02 0.01 0.01 0.01 0.01 0.01 0.01 0.01 0.01 0.02 0.03 0.02 0.02 0.02 0.02 0.02 0.02 0.02 0.02 0.03 0.03 0.03 0.04 0.06 0.07
0.05 0.05 0.04 0.03 0.03 0.02 0.01 0.01 0.01 0.02 0.01 0.01 0.02 0.02 0.02 0.02 0.01 0.01 0.01 0.01 0.01 0.01 0.01 0.01 0.01 0.01 0.01 0.01 0.02 0.02 0.03 0.03 0.03 0.02 0.02 0.02 0.02 0.02 0.03 0.03 0.03 0.04 0.04
0.04 0.04 0.04 0.04 0.03 0.03 0.03 0.03 0.02 0.02 0.02 0.02 0.02 0.01 0.02 0.02 0.02 0.02 0.02 0.01 0.01 0.01 0.01 0.01 0.01 0.01 0.02 0.02 0.03 0.03 0.03 0.03 0.03 0.03 0.03 0.03 0.02 0.02 0.02 0.03 0.03 0.03 0.04
0.04 0.04 0.04 0.04 0.03 0.03 0.03 0.03 0.03 0.03 0.03 0.03 0.03 0.02 0.02 0.03 0.03 0.03 0.02 0.02 0.02 0.02 0.02 0.02 0.02 0.02 0.02 0.02 0.02 0.02 0.03 0.03 0.03 0.02 0.02 0.03 0.03 0.03 0.02 0.02 0.02 0.02 0.03
0.04 0.04 0.04 0.03 0.02 0.03 0.03 0.02 0.02 0.02 0.02 0.02 0.03 0.03 0.03 0.02 0.02 0.02 0.01 0.01 0.01 0.01 0.01 0.02 0.02 0.01 0.01 0.01 0.01 0.01 0.02 0.02 0.02 0.03 0.03 0.03 0.03 0.03 0.03 0.02 0.02 0.02 0.03
0.02 0.03 0.02 0.02 0.02 0.01 0.03 0.03 0.02 0.02 0.02 0.02 0.02 0.02 0.02 0.02 0.02 0.02 0.02 0.02 0.02 0.02 0.02 0.02 0.02 0.02 0.02 0.01 0.01 0.01 0.01 0.02 0.03 0.03 0.03 0.04 0.03 0.04 0.04 0.03 0.03 0.03 0.03
0.02 0.02 0.01 0.01 0.01 0.01 0.02 0.03 0.02 0.03 0.02 0.02 0.02 0.02 0.02 0.02 0.02 0.03 0.02 0.02 0.02 0.02 0.02 0.02 0.03 0.03 0.02 0.02 0.01 0.01 0.01 0.01 0.02 0.03 0.03 0.03 0.03 0.03 0.04 0.04 0.05 0.04 0.04
0.02 0.01 0.01 0.01 0.01 0.02 0.02 0.03 0.03 0.03 0.03 0.03 0.02 0.02 0.02 0.02 0.03 0.03 0.03 0.03 0.03 0.02 0.03 0.03 0.03 0.03 0.03 0.02 0.01 0.01 0.01 0.01 0.02 0.03 0.03 0.03 0.03 0.03 0.04 0.05 0.05 0.04 0.04
0.02 0.01 0.01 0.01 0.02 0.02 0.01 0.02 0.02 0.03 0.03 0.03 0.03 0.02 0.03 0.03 0.03 0.03 0.03 0.03 0.02 0.02 0.03 0.03 0.03 0.03 0.03 0.03 0.02 0.02 0.03 0.03 0.03 0.03 0.03 0.03 0.02 0.02 0.03 0.04 0.04 0.04 0.04
0.02 0.02 0.02 0.02 0.02 0.02 0.01 0.01 0.02 0.02 0.02 0.02 0.02 0.03 0.03 0.03 0.03 0.03 0.03 0.02 0.03 0.03 0.03 0.03 0.03 0.03 0.03 0.03 0.03 0.03 0.03 0.03 0.03 0.03 0.03 0.03 0.02 0.02 0.03 0.02 0.03 0.04 0.04
0.02 0.02 0.02 0.02 0.02 0.02 0.02 0.02 0.02 0.02 0.02 0.02 0.02 0.02 0.03 0.03 0.03 0.03 0.02 0.02 0.02 0.03 0.03 0.03 0.03 0.03 0.03 0.03 0.03 0.02 0.02 0.02 0.03 0.02 0.02 0.03 0.03 0.03 0.03 0.03 0.03 0.03 0.04
MSLP
1004.85 1004.76 1004.56 1004.26 1003.90 1003.54 1003.24 1003.06 1003.04 1003.21 1003.54 1004.00 1004.54 1005.10 1005.63 1006.10 1006.51 1006.87 1007.20 1007.52 1007.84 1008.18 1008.49 1008.77 1008.97 1009.05 1009.01 1008.83 1008.55 1008.20 1007.85 1007.53 1007.31 1007.19 1007.20 1007.32 1007.52 1007.76 1008.01 1008.26 1008.47 1008.67 1008.84
1004.76 1004.56 1004.27 1003.89 1003.48 1003.08 1002.78 1002.62 1002.64 1002.86 1003.26 1003.80 1004.43 1005.09 1005.72 1006.29 1006.80 1007.24 1007.64 1008.00 1008.33 1008.65 1008.93 1009.15 1009.28 1009.31 1009.20 1008.99 1008.69 1008.34 1008.00 1007.71 1007.52 1007.43 1007.45 1007.57 1007.74 1007.94 1008.13 1008.29 1008.41 1008.51 1008.59
1004.62 1004.35 1004.01 1003.62 1003.20 1002.84 1002.58 1002.48 1002.58 1002.88 1003.36 1003.98 1004.69 1005.42 1006.12 1006.77 1007.34 1007.83 1008.26 1008.64 1008.98 1009.28 1009.53 1009.70 1009.79 1009.77 1009.63 1009.39 1009.08 1008.74 1008.42 1008.15 1007.97 1007.90 1007.92 1008.02 1008.16 1008.29 1008.40 1008.46 1008.47 1008.45 1008.41
1004.39 1004.13 1003.81 1003.45 1003.11 1002.83 1002.68 1002.69 1002.90 1003.30 1003.87 1004.56 1005.32 1006.09 1006.83 1007.49 1008.08 1008.58 1009.01 1009.39 1009.72 1010.00 1010.22 1010.38 1010.44 1010.40 1010.25 1010.02 1009.71 1009.39 1009.09 1008.84 1008.67 1008.60 1008.60 1008.67 1008.75 1008.81 1008.83 1008.79 1008.69 1008.54 1008.38
1004.10 1003.89 1003.65 1003.40 1003.18 1003.05 1003.05 1003.21 1003.56 1004.07 1004.73 1005.48 1006.26 1007.04 1007.76 1008.40 1008.95 1009.42 1009.82 1010.17 1010.47 1010.73 1010.94 1011.09 1011.16 1011.13 1011.01 1010.80 1010.53 1010.23 1009.95 1009.72 1009.55 1009.47 1009.44 1009.46 1009.48 1009.48 1009.41 1009.27 1009.06 1008.80 1008.53
1003.74 1003.63 1003.51 1003.41 1003.37 1003.43 1003.62 1003.96 1004.46 1005.09 1005.83 1006.62 1007.41 1008.15 1008.82 1009.39 1009.88 1010.28 1010.61 1010.91 1011.18 1011.42 1011.63 1011.79 1011.88 1011.89 1011.81 1011.64 1011.42 1011.16 1010.91 1010.69 1010.52 1010.41 1010.36 1010.33 1010.29 1010.22 1010.08 1009.87 1009.58 1009.23 1008.86
1003.35 1003.36 1003.39 1003.47 1003.63 1003.90 1004.30 1004.83 1005.48 1006.23 1007.03 1007.84 1008.61 1009.30 1009.89 1010.37 1010.76 1011.07 1011.33 1011.57 1011.79 1012.02 1012.23 1012.41 1012.54 1012.60 1012.57 1012.47 1012.30 1012.08 1011.86 1011.65 1011.47 1011.34 1011.24 1011.17 1011.09 1010.96 1010.78 1010.52 1010.19 1009.80 1009.37
1002.95 1003.10 1003.29 1003.56 1003.93 1004.41 1005.01 1005.72 1006.51 1007.36 1008.21 1009.02 1009.75 1010.37 1010.87 1011.25 1011.54 1011.76 1011.95 1012.13 1012.32 1012.53 1012.74 1012.94 1013.11 1013.22 1013.25 1013.20 1013.07 1012.90 1012.69 1012.49 1012.30 1012.14 1012.01 1011.90 1011.78 1011.63 1011.43 1011.16 1010.82 1010.42 1009.99
1002.63 1002.90 1003.25 1003.70 1004.26 1004.93 1005.71 1006.56 1007.47 1008.39 1009.27 1010.07 1010.75 1011.30 1011.72 1012.02 1012.22 1012.37 1012.49 1012.62 1012.78 1012.97 1013.19 1013.41 1013.60 1013.74 1013.81 1013.80 1013.71 1013.55 1013.36 1013.15 1012.94 1012.76 1012.60 1012.46 1012.32 1012.16 1011.96 1011.71 1011.40 1011.04 1010.64
1002.44 1002.82 1003.31 1003.92 1004.64 1005.47 1006.39 1007.35 1008.34 1009.29 1010.18 1010.95 1011.59 1012.08 1012.44 1012.67 1012.81 1012.91 1012.99 1013.09 1013.23 1013.41 1013.62 1013.83 1014.03 1014.18 1014.26 1014.26 1014.18 1014.04 1013.84 1013.62 1013.40 1013.19 1013.01 1012.84 1012.69 1012.53 1012.36 1012.14 1011.89 1011.59 1011.25
1002.43 1002.92 1003.53 1004.27 1005.12 1006.07 1007.08 1008.11 1009.13 1010.09 1010.96 1011.70 1012.29 1012.73 1013.04 1013.24 1013.35 1013.43 1013.49 1013.58 1013.71 1013.87 1014.06 1014.26 1014.43 1014.56 1014.63 1014.62 1014.53 1014.38 1014.17 1013.94 1013.70 1013.47 1013.26 1013.08 1012.92 1012.77 1012.62 1012.44 1012.24 1012.01 1011.74
1002.66 1003.23 1003.95 1004.79 1005.74 1006.76 1007.82 1008.88 1009.89 1010.83 1011.65 1012.34 1012.89 1013.30 1013.58 1013.76 1013.88 1013.96 1014.03 1014.12 1014.23 1014.37 1014.53 1014.69 1014.83 1014.92 1014.95 1014.91 1014.80 1014.63 1014.41 1014.17 1013.91 1013.67 1013.45 1013.25 1013.08 1012.93 1012.79 1012.65 1012.49 1012.31 1012.10
1003.12 1003.77 1004.57 1005.49 1006.50 1007.56 1008.63 1009.67 1010.64 1011.53 1012.29 1012.93 1013.43 1013.81 1014.08 1014.27 1014.40 1014.50 1014.59 1014.68 1014.79 1014.91 1015.03 1015.14 1015.22 1015.26 1015.25 1015.17 1015.04 1014.85 1014.63 1014.38 1014.12 1013.87 1013.64 1013.44 1013.25 1013.09 1012.95 1012.81 1012.67 1012.51 1012.35
1003.79 1004.50 1005.37 1006.34 1007.38 1008.45 1009.50 1010.49 1011.41 1012.22 1012.91 1013.48 1013.94 1014.30 1014.57 1014.77 1014.93 1015.05 1015.16 1015.27 1015.37 1015.46 1015.54 1015.59 1015.62 1015.61 1015.55 1015.44 1015.29 1015.10 1014.89 1014.65 1014.40 1014.16 1013.93 1013.71 1013.51 1013.32 1013.15 1012.99 1012.83 1012.68 1012.52
1004.61 1005.38 1006.28 1007.29 1008.34 1009.39 1010.39 1011.33 1012.16 1012.89 1013.51 1014.02 1014.44 1014.77 1015.04 1015.26 1015.44 1015.59 1015.72 1015.83 1015.92 1015.99 1016.03 1016.04 1016.01 1015.96 1015.87 1015.75 1015.60 1015.43 1015.24 1015.03 1014.81 1014.59 1014.36 1014.13 1013.90 1013.67 1013.45 1013.24 1013.05 1012.86 1012.68
1005.52 1006.32 1007.25 1008.26 1009.29 1010.31 1011.26 1012.13 1012.89 1013.54 1014.09 1014.54 1014.92 1015.24 1015.51 1015.74 1015.94 1016.11 1016.25 1016.36 1016.44 1016.48 1016.49 1016.47 1016.41 1016.34 1016.24 1016.13 1016.01 1015.87 1015.73 1015.56 1015.38 1015.17 1014.95 1014.70 1014.43 1014.16 1013.88 1013.61 1013.35 1013.11 1012.89
1006.47 1007.27 1008.20 1009.19 1010.19 1011.16 1012.06 1012.85 1013.55 1014.14 1014.63 1015.04 1015.39 1015.70 1015.97 1016.21 1016.42 1016.60 1016.75 1016.86 1016.93 1016.96 1016.95 1016.91 1016.85 1016.77 1016.69 1016.61 1016.53 1016.44 1016.35 1016.23 1016.08 1015.89 1015.66 1015.39 1015.09 1014.76 1014.41 1014.07 1013.74 1013.44 1013.16
1007.44 1008.21 1009.10 1010.05 1011.00 1011.92 1012.76 1013.50 1014.15 1014.69 1015.14 1015.53 1015.87 1016.17 1016.44 1016.69 1016.91 1017.10 1017.25 1017.36 1017.42 1017.45 1017.44 1017.40 1017.35 1017.30 1017.25 1017.21 1017.18 1017.14 1017.09 1017.01 1016.88 1016.70 1016.45 1016.15 1015.79 1015.40 1014.99 1014.58 1014.18 1013.82 1013.50
1008.42 1009.13 1009.96 1010.84 1011.74 1012.60 1013.39 1014.09 1014.70 1015.21 1015.65 1016.03 1016.37 1016.67 1016.95 1017.20 1017.42 1017.62 1017.77 1017.88 1017.95 1017.98 1017.98 1017.97 1017.95 1017.93 1017.93 1017.94 1017.95 1017.95 1017.92 1017.85 1017.72 1017.52 1017.24 1016.88 1016.47 1016.01 1015.54 1015.07 1014.62 1014.22 1013.86
1009.44 1010.06 1010.81 1011.61 1012.44 1013.24 1013.98 1014.65 1015.24 1015.74 1016.18 1016.57 1016.91 1017.22 1017.50 1017.75 1017.98 1018.18 1018.33 1018.45 1018.53 1018.58 1018.61 1018.63 1018.65 1018.68 1018.72 1018.77 1018.81 1018.82 1018.80 1018.71 1018.55 1018.30 1017.96 1017.53 1017.05 1016.53 1015.99 1015.47 1014.99 1014.56 1014.18
1010.52 1011.04 1011.69 1012.41 1013.16 1013.90 1014.59 1015.23 1015.80 1016.31 1016.75 1017.14 1017.49 1017.81 1018.09 1018.35 1018.57 1018.76 1018.92 1019.05 1019.15 1019.23 1019.29 1019.36 1019.42 1019.50 1019.58 1019.66 1019.71 1019.72 1019.67 1019.54 1019.31 1018.98 1018.55 1018.05 1017.49 1016.90 1016.31 1015.75 1015.24 1014.80 1014.42
1011.66 1012.10 1012.65 1013.28 1013.94 1014.61 1015.26 1015.87 1016.42 1016.91 1017.36 1017.75 1018.10 1018.41 1018.69 1018.93 1019.15 1019.34 1019.50 1019.63 1019.75 1019.86 1019.97 1020.09 1020.21 1020.33 1020.45 1020.54 1020.59 1020.58 1020.48 1020.27 1019.96 1019.53 1019.01 1018.41 1017.77 1017.11 1016.48 1015.89 1015.37 1014.92 1014.55
1012.88 1013.23 1013.69 1014.23 1014.81 1015.41 1016.01 1016.57 1017.09 1017.56 1017.98 1018.36 1018.69 1018.98 1019.23 1019.45 1019.65 1019.82 1019.98 1020.12 1020.27 1020.41 1020.57 1020.74 1020.91 1021.08 1021.23 1021.34 1021.38 1021.33 1021.17 1020.89 1020.48 1019.96 1019.33 1018.64 1017.92 1017.20 1016.53 1015.92 1015.40 1014.95 1014.59
1014.12 1014.40 1014.78 1015.24 1015.75 1016.27 1016.79 1017.30 1017.77 1018.19 1018.58 1018.91 1019.20 1019.44 1019.65 1019.84 1020.00 1020.15 1020.29 1020.44 1020.60 1020.79 1021.00 1021.22 1021.45 1021.67 1021.85 1021.98 1022.01 1021.93 1021.72 1021.37 1020.88 1020.27 1019.56 1018.79 1018.00 1017.24 1016.53 1015.91 1015.38 1014.95 1014.60
1015.32 1015.56 1015.88 1016.26 1016.68 1017.13 1017.58 1018.01 1018.41 1018.77 1019.09 1019.36 1019.58 1019.76 1019.91 1020.04 1020.15 1020.26 1020.39 1020.54 1020.72 1020.94 1021.19 1021.48 1021.76 1022.03 1022.26 1022.41 1022.45 1022.36 1022.12 1021.72 1021.17 1020.50 1019.73 1018.91 1018.08 1017.29 1016.56 1015.94 1015.41 1014.99 1014.64
1016.41 1016.62 1016.88 1017.20 1017.55 1017.92 1018.28 1018.63 1018.95 1019.23 1019.47 1019.66 1019.80 1019.91 1019.99 1020.05 1020.10 1020.18 1020.28 1020.42 1020.61 1020.86 1021.16 1021.49 1021.84 1022.16 1022.44 1022.63 1022.70 1022.62 1022.38 1021.97 1021.40 1020.70 1019.90 1019.06 1018.21 1017.41 1016.68 1016.06 1015.54 1015.13 1014.79
Thickness
5746 5743 5741 5738 5736 5734 5732 5730 5728 5727 5726 5724 5722 5720 5719 5717 5717 5716 5716 5716 5714 5714 5714 5713 5712 5712 5711 5711 5711 5710 5709 5707 5701 5703 5707 5708 5707 5705 5704 5705 5704 5704 5703
5743 5739 5736 5734 5731 5729 5727 5725 5723 5721 5720 5718 5716 5715 5713 5712 5711 5710 5709 5709 5708 5707 5707 5707 5706 5707 5705 5705 5704 5704 5703 5703 5699 5697 5699 5701 5701 5701 5700 5700 5701 5701 5701
5740 5735 5731 5728 5726 5723 5722 5720 5718 5716 5714 5713 5711 5708 5707 5705 5705 5704 5703 5703 5702 5702 5701 5700 5699 5699 5698 5698 5698 5698 5698 5699 5697 5694 5694 5696 5696 5696 5695 5695 5697 5697 5698
5735 5731 5726 5723 5721 5719 5717 5715 5713 5710 5708 5706 5704 5703 5701 5700 5698 5697 5696 5696 5696 5696 5696 5694 5693 5692 5691 5691 5691 5691 5691 5691 5691 5690 5689 5689 5689 5691 5690 5688 5688 5690 5691
5729 5725 5722 5720 5718 5715 5712 5710 5707 5705 5703 5701 5698 5696 5695 5693 5691 5689 5689 5690 5689 5689 5689 5688 5688 5686 5685 5685 5685 5684 5684 5683 5683 5683 5682 5682 5682 5681 5681 5682 5681 5682 5684
5724 5721 5719 5716 5713 5710 5707 5704 5701 5699 5697 5694 5692 5690 5688 5686 5682 5681 5681 5682 5682 5682 5681 5681 5681 5679 5678 5678 5678 5677 5677 5676 5675 5675 5675 5674 5675 5676 5677 5677 5676 5674 5675
5720 5717 5715 5713 5708 5705 5703 5699 5696 5693 5690 5687 5685 5683 5680 5677 5676 5674 5674 5674 5674 5675 5674 5674 5675 5675 5672 5672 5672 5672 5671 5671 5669 5669 5668 5668 5669 5671 5671 5670 5670 5670 5671
5715 5713 5711 5708 5704 5701 5697 5694 5690 5687 5684 5681 5679 5677 5674 5671 5669 5667 5666 5667 5668 5668 5668 5667 5666 5665 5664 5663 5665 5666 5666 5666 5665 5664 5664 5665 5666 5667 5667 5667 5667 5667 5669
5711 5708 5707 5704 5700 5696 5692 5688 5685 5682 5679 5676 5674 5671 5668 5665 5662 5661 5659 5660 5661 5661 5661 5660 5659 5657 5655 5655 5657 5657 5658 5658 5660 5660 5659 5660 5660 5661 5661 5660 5660 5659 5659
5707 5705 5702 5699 5695 5691 5688 5684 5681 5677 5674 5671 5669 5666 5663 5660 5656 5654 5653 5654 5653 5652 5653 5652 5651 5649 5648 5647 5647 5648 5648 5650 5651 5652 5652 5653 5655 5655 5655 5655 5655 5653 5653
5704 5701 5697 5694 5691 5687 5684 5680 5676 5672 5669 5666 5663 5661 5658 5655 5651 5648 5646 5646 5645 5644 5645 5644 5643 5642 5641 5640 5640 5640 5640 5641 5643 5645 5647 5648 5649 5649 5650 5650 5650 5649 5647
5699 5694 5691 5688 5686 5683 5678 5673 5670 5666 5662 5659 5657 5654 5653 5650 5647 5643 5640 5637 5636 5636 5636 5637 5635 5633 5633 5633 5634 5634 5634 5634 5637 5639 5640 5641 5641 5642 5643 5644 5645 5645 5645
5690 5687 5684 5682 5679 5676 5672 5667 5663 5660 5657 5655 5652 5649 5647 5645 5642 5638 5634 5631 5629 5627 5627 5627 5626 5625 5625 5627 5628 5628 5627 5628 5630 5631 5632 5634 5636 5636 5637 5637 5638 5638 5638
5681 5678 5676 5673 5670 5668 5664 5661 5658 5654 5652 5649 5647 5644 5642 5639 5635 5631 5627 5624 5621 5619 5618 5617 5618 5619 5619 5620 5621 5622 5622 5622 5623 5624 5625 5627 5629 5629 5628 5629 5628 5629 5629
5672 5669 5667 5665 5663 5659 5656 5653 5651 5648 5646 5642 5640 5638 5634 5630 5627 5623 5620 5617 5615 5612 5610 5610 5611 5613 5614 5615 5616 5617 5617 5617 5616 5617 5618 5618 5619 5620 5620 5621 5620 5620 5619
5664 5661 5659 5657 5654 5652 5648 5644 5640 5639 5637 5634 5632 5628 5626 5622 5619 5616 5612 5610 5607 5604 5601 5603 5603 5605 5606 5609 5609 5611 5611 5611 5611 5611 5610 5610 5610 5611 5611 5612 5612 5611 5611
5656 5653 5651 5650 5647 5644 5641 5637 5633 5629 5626 5624 5621 5618 5615 5612 5610 5607 5604 5601 5599 5596 5595 5597 5597 5597 5599 5601 5602 5603 5604 5604 5604 5603 5603 5603 5603 5603 5603 5603 5603 5603 5604
5648 5645 5643 5641 5639 5636 5633 5630 5627 5623 5619 5616 5612 5609 5606 5603 5600 5598 5596 5593 5593 5592 5592 5591 5591 5592 5593 5593 5594 5595 5596 5596 5596 5596 5596 5596 5596 5595 5595 5596 5596 5596 5596
5638 5636 5633 5632 5630 5628 5625 5622 5619 5616 5613 5610 5606 5602 5598 5595 5592 5590 5587 5587 5588 5588 5588 5587 5586 5586 5586 5587 5587 5587 5588 5588 5588 5588 5588 5588 5588 5588 5588 5588 5589 5588 5587
5628 5625 5623 5623 5621 5619 5616 5614 5611 5607 5604 5602 5599 5596 5592 5589 5587 5585 5583 5583 5582 5582 5581 5580 5580 5580 5580 5580 5580 5580 5581 5581 5581 5581 5581 5581 5581 5581 5581 5581 5581 5581 5580
5619 5616 5614 5613 5611 5609 5606 5604 5601 5598 5596 5594 5591 5588 5584 5583 5583 5581 5580 5578 5577 5577 5576 5574 5573 5573 5573 5573 5573 5574 5574 5574 5574 5574 5574 5574 5573 5574 5574 5574 5574 5574 5573
5609 5607 5605 5603 5601 5598 5595 5593 5591 5588 5587 5585 5583 5580 5576 5576 5576 5574 5573 5572 5571 5570 5569 5568 5567 5567 5566 5566 5566 5567 5567 5566 5566 5567 5566 5566 5566 5566 5566 5566 5566 5565 5565
5599 5597 5595 5593 5591 5587 5585 5583 5581 5580 5578 5577 5574 5572 5569 5568 5567 5565 5564 5563 5562 5562 5561 5560 5559 5559 5559 5558 5558 5557 5556 5556 5557 5557 5557 5557 5558 5558 5558 5558 5558 5557 5556
5589 5587 5586 5584 5581 5578 5576 5574 5572 5570 5569 5568 5566 5564 5561 5559 5558 5557 5556 5555 5555 5554 5554 5554 5553 5552 5551 5550 5549 5548 5547 5546 5546 5547 5547 5547 5548 5549 5549 5549 5548 5548 5547
5580 5579 5577 5574 5572 5569 5567 5565 5563 5561 5560 5559 5557 5555 5553 5551 5550 5549 5547 5547 5546 5546 5545 5545 5545 5544 5543 5542 5540 5538 5537 5537 5536 5536 5538 5539 5540 5540 5540 5540 5539 5539 5538
5571 5569 5567 5565 5563 5561 5558 5555 5553 5552 5550 5549 5547 5546 5544 5541 5540 5539 5538 5538 5537 5537 5537 5537 5536 5535 5534 5533 5532 5529 5528 5528 5528 5528 5528 5529 5531 5532 5532 5531 5530 5530 5529